STARLINK-11521 [DTC] (62597 NORAD) Tracking and Keplerian Element Data

This shows tracking and keplerian element data for the satellite.

Feedback or suggestion? Click here.




ElementValue
Catalog62597
NameSTARLINK-11521 [DTC]
Epoch Orbit5476
Epoch Day354.06810271
Epoch Year2025
RAAN245.9331
Inclination43.0013
Eccentricity0.0002533
Argument of Perigee269.1146
Mean Anonmoly90.9432
Mean Motion15.70881257
Decay Rate0.00228517
L11 62597U 25008L 25354.06810271 .00228517 00000+0 17328-2 0 9995
L22 62597 43.0013 245.9331 0002533 269.1146 90.9432 15.70881257 54764



Live tracking and technical data element details for STARLINK-11521 [DTC] (NORAD 62597). STARLINK-11521 [DTC] can be tracked NOW for your location showing map with azimuth and elevation plus other details from your city location.







IsCatalogInMostPopularTable: catalog: 62597, numindb: 233
Update: records affected: 1



GetName: 62597 STARLINK-11521 [DTC]

Hit Count: updated at: Sat, 14 Mar 2026 02:58:20 GMT